Location: Muenchen
(48.1800°N, 11.5800°E)
Time: 10:16:59
(UTC+02:00)

Vanguard 2 Rocket - Visible Passes

Search period start: 28 July 2014 00:00
Search period end: 07 August 2014 00:00
Orbit: 553 x 3336 km, 32.9° (Epoch: 26 July)

Date Brightness Start Highest point End Pass type
(mag) Time Alt. Az. Time Alt. Az. Time Alt. Az.
28 Jul 10.2 02:40:20 10° SE 02:42:36 11° SE 02:45:02 10° ESE visible
28 Jul 9.9 04:43:35 10° SSW 04:54:57 33° SSE 05:10:31 10° E visible
29 Jul 9.8 03:47:28 12° S 03:56:06 25° SE 04:08:44 10° E visible
30 Jul 9.8 02:52:21 12° SSE 02:57:43 17° SE 03:06:01 10° E visible
30 Jul 9.7 04:59:04 10° SW 05:10:36 38° SSE 05:27:07 10° E visible
31 Jul 9.5 04:03:06 14° SSW 04:11:35 31° SSE 04:25:42 10° E visible
01 Aug 9.5 03:07:58 17° S 03:13:03 23° SE 03:23:51 10° E visible
02 Aug 9.7 02:12:49 14° SE 02:14:57 14° SE 02:21:01 10° ESE visible
02 Aug 9.4 04:18:43 15° SSW 04:27:19 36° SSE 04:42:16 10° E visible
03 Aug 9.2 03:23:34 20° S 03:28:37 28° SSE 03:40:49 10° E visible
04 Aug 9.3 02:28:26 19° SSE 02:30:23 20° SE 02:39:02 10° E visible
04 Aug 9.3 04:34:20 14° SW 04:43:14 40° SSE 04:58:34 10° ESE visible
05 Aug 9.7 01:33:19 12° SE 01:33:19 12° SE 01:35:57 10° ESE visible
05 Aug 9.0 03:39:13 22° SSW 03:44:26 33° SSE 03:57:23 10° E visible
06 Aug 9.0 02:44:07 24° SSE 02:46:03 25° SSE 02:56:04 10° E visible
06 Aug 9.3 04:50:01 12° SW 04:59:20 41° S 05:14:40 10° ESE visible
